カーンズ-クェー彗星

59P/Kearns-Kwee (2018)

English version
Home page
Updated on March 3, 2018

---------------------------------------------------------------------

・ プロフィール

・ 写真集

・ 軌道要素

Epoch 2018 Aug. 30.0 TT = JDT 2458360.5
T 2018 Sept. 16.74629 TT                                MPCW
q   2.3587520            (2000.0)            P               Q
n   0.10342166     Peri.  127.69928     +0.15688445     -0.98041948
a   4.4949863      Node   312.82809     +0.84735474     +0.19552611
e   0.4752482      Incl.    9.33933     +0.50732358     -0.02339217
P   9.53
From 886 observations 1998 July 27-2017 Sept. 24, mean residual 0".7.
     Nongravitational parameters A1 = +3.21, A2 = -0.1836.

・ 星図

・ 光度変化

        m1 = 7.0 + 5 logΔ + 20 log r

---------------------------------------------------------------------

軌道要素はM.P.E.C. 2017-T14に掲載されたものです。
星図はステラナビゲータ Ver.10 (アストロアーツ) で作成したものです。
光度グラフはComet for Windowsで作成したものです。

---------------------------------------------------------------------

Copyright(C) Seiichi Yoshida (comet@aerith.net). All rights reserved.